• In Deutschland
  • Länderverzeichnis
  • Für 7 Tage
  • Wassertemperatur
  • Satellitenkarten
  • Wetterkarte
  • Widgets
  • user-avatar
    Anmelden

    Stündliche Wetter Eckernförde

    Heute, 24 Oktober, Dienstag

    Zeit Temperatur Niederschläge Wind Luftdruck Luftfeuchtigkeit
    00:00 +9°C° 0 mm 3 m/S 764 mmHg 94%
    01:00 +9°C° 0 mm 2 m/S 764 mmHg 94%
    02:00 +9°C° 0 mm 2 m/S 764 mmHg 95%
    03:00 +8°C° 0 mm 3 m/S 764 mmHg 95%
    04:00 +8°C° 0 mm 3 m/S 764 mmHg 95%
    05:00 +8°C° 0 mm 3 m/S 764 mmHg 95%
    06:00 +7°C° 0 mm 4 m/S 764 mmHg 95%
    07:00 +7°C° 0 mm 4 m/S 764 mmHg 95%
    08:00 +8°C° 0,1 mm 4 m/S 764 mmHg 94%
    09:00 +9°C° 0,1 mm 5 m/S 764 mmHg 93%
    10:00 +10°C° 0,1 mm 5 m/S 764 mmHg 92%
    11:00 +10°C° 0,4 mm 6 m/S 763 mmHg 92%
    12:00 +11°C° 0,4 mm 6 m/S 763 mmHg 92%
    13:00 +11°C° 0,4 mm 6 m/S 763 mmHg 93%
    14:00 +13°C° 0,5 mm 6 m/S 762 mmHg 93%
    15:00 +13°C° 0,5 mm 6 m/S 762 mmHg 94%
    16:00 +13°C° 0,5 mm 6 m/S 762 mmHg 94%
    17:00 +13°C° 0,3 mm 6 m/S 761 mmHg 94%
    18:00 +13°C° 0,3 mm 6 m/S 761 mmHg 95%
    19:00 +14°C° 0,3 mm 6 m/S 761 mmHg 95%
    20:00 +14°C° 0,3 mm 6 m/S 761 mmHg 95%
    21:00 +14°C° 0,3 mm 6 m/S 761 mmHg 95%
    22:00 +14°C° 0,3 mm 7 m/S 760 mmHg 95%
    23:00 +15°C° 0,2 mm 6 m/S 760 mmHg 95%

    Morgen, 25 Oktober, Mittwoch

    Zeit Temperatur Niederschläge Wind Luftdruck Luftfeuchtigkeit
    00:00 +15°C° 0,2 mm 6 m/S 760 mmHg 95%
    01:00 +15°C° 0,2 mm 6 m/S 760 mmHg 95%
    02:00 +15°C° 0,7 mm 7 m/S 760 mmHg 94%
    03:00 +15°C° 0,7 mm 8 m/S 759 mmHg 93%
    04:00 +15°C° 0,7 mm 8 m/S 759 mmHg 92%
    05:00 +15°C° 0,1 mm 8 m/S 759 mmHg 91%
    06:00 +15°C° 0,1 mm 8 m/S 759 mmHg 89%
    07:00 +15°C° 0,1 mm 8 m/S 758 mmHg 88%
    08:00 +15°C° 0,2 mm 9 m/S 758 mmHg 88%
    09:00 +14°C° 0,2 mm 10 m/S 759 mmHg 88%
    10:00 +14°C° 0,2 mm 10 m/S 759 mmHg 88%
    11:00 +13°C° 0,3 mm 9 m/S 759 mmHg 86%
    12:00 +13°C° 0,3 mm 9 m/S 760 mmHg 84%
    13:00 +13°C° 0,3 mm 8 m/S 761 mmHg 81%
    14:00 +12°C° 0 mm 7 m/S 761 mmHg 81%
    15:00 +12°C° 0 mm 7 m/S 762 mmHg 81%
    16:00 +13°C° 0 mm 6 m/S 762 mmHg 80%
    17:00 +11°C° 0 mm 6 m/S 763 mmHg 82%
    18:00 +11°C° 0 mm 6 m/S 763 mmHg 84%
    19:00 +12°C° 0 mm 5 m/S 764 mmHg 86%
    20:00 +12°C° 0 mm 5 m/S 764 mmHg 85%
    21:00 +11°C° 0 mm 6 m/S 765 mmHg 84%
    22:00 +11°C° 0 mm 6 m/S 765 mmHg 82%
    23:00 +11°C° 0 mm 6 m/S 765 mmHg 83%

    übermorgen, 26 Oktober, Donnerstag

    Zeit Temperatur Niederschläge Wind Luftdruck Luftfeuchtigkeit
    00:00 +12°C° 0 mm 5 m/S 765 mmHg 83%
    01:00 +12°C° 0 mm 5 m/S 765 mmHg 83%
    02:00 +12°C° 0 mm 5 m/S 765 mmHg 84%
    03:00 +12°C° 0 mm 5 m/S 765 mmHg 84%
    04:00 +12°C° 0 mm 5 m/S 765 mmHg 85%
    05:00 +10°C° 0 mm 5 m/S 765 mmHg 86%
    06:00 +10°C° 0 mm 5 m/S 765 mmHg 87%
    07:00 +10°C° 0 mm 5 m/S 765 mmHg 88%
    08:00 +12°C° 0 mm 5 m/S 765 mmHg 86%
    09:00 +11°C° 0 mm 6 m/S 765 mmHg 84%
    10:00 +13°C° 0 mm 6 m/S 765 mmHg 81%
    11:00 +14°C° 0 mm 6 m/S 765 mmHg 79%
    12:00 +14°C° 0 mm 6 m/S 765 mmHg 77%
    13:00 +14°C° 0 mm 6 m/S 765 mmHg 75%
    14:00 +14°C° 0 mm 6 m/S 765 mmHg 77%
    15:00 +13°C° 0 mm 6 m/S 764 mmHg 79%
    16:00 +13°C° 0 mm 6 m/S 764 mmHg 81%
    17:00 +11°C° 0 mm 6 m/S 764 mmHg 84%
    18:00 +11°C° 0 mm 6 m/S 764 mmHg 86%
    19:00 +10°C° 0 mm 6 m/S 764 mmHg 89%
    20:00 +10°C° 0 mm 6 m/S 764 mmHg 88%
    21:00 +10°C° 0 mm 6 m/S 764 mmHg 87%
    22:00 +10°C° 0 mm 6 m/S 764 mmHg 87%
    23:00 +10°C° 0 mm 6 m/S 763 mmHg 85%

    27 Oktober, Freitag

    Zeit Temperatur Niederschläge Wind Luftdruck Luftfeuchtigkeit
    00:00 +10°C° 0 mm 6 m/S 763 mmHg 84%
    01:00 +10°C° 0 mm 6 m/S 762 mmHg 82%
    02:00 +10°C° 0 mm 6 m/S 762 mmHg 82%
    03:00 +10°C° 0 mm 7 m/S 762 mmHg 81%
    04:00 +10°C° 0 mm 7 m/S 761 mmHg 81%
    05:00 +9°C° 0 mm 7 m/S 761 mmHg 81%
    06:00 +9°C° 0 mm 7 m/S 761 mmHg 82%
    07:00 +9°C° 0 mm 6 m/S 760 mmHg 82%
    08:00 +9°C° 0 mm 7 m/S 760 mmHg 79%
    09:00 +10°C° 0 mm 8 m/S 760 mmHg 75%
    10:00 +11°C° 0 mm 8 m/S 760 mmHg 71%
    11:00 +11°C° 0,1 mm 8 m/S 760 mmHg 71%
    12:00 +11°C° 0,1 mm 9 m/S 760 mmHg 70%
    13:00 +12°C° 0,1 mm 9 m/S 760 mmHg 69%
    14:00 +11°C° 0,1 mm 8 m/S 761 mmHg 71%
    15:00 +11°C° 0,1 mm 7 m/S 761 mmHg 73%
    16:00 +11°C° 0,1 mm 7 m/S 761 mmHg 75%
    17:00 +10°C° 0 mm 7 m/S 761 mmHg 77%
    18:00 +10°C° 0 mm 6 m/S 762 mmHg 79%
    19:00 +9°C° 0 mm 6 m/S 762 mmHg 81%
    20:00 +8°C° 0 mm 5 m/S 762 mmHg 83%
    21:00 +8°C° 0 mm 5 m/S 763 mmHg 84%
    22:00 +8°C° 0 mm 5 m/S 763 mmHg 85%
    23:00 +8°C° 0 mm 5 m/S 763 mmHg 86%

    28 Oktober, Samstag

    Zeit Temperatur Niederschläge Wind Luftdruck Luftfeuchtigkeit
    00:00 +7°C° 0 mm 5 m/S 763 mmHg 86%
    01:00 +7°C° 0 mm 5 m/S 763 mmHg 86%
    02:00 +8°C° 0,1 mm 5 m/S 763 mmHg 84%
    03:00 +8°C° 0,1 mm 5 m/S 762 mmHg 82%
    04:00 +8°C° 0,1 mm 6 m/S 762 mmHg 80%
    05:00 +8°C° 0,1 mm 6 m/S 762 mmHg 79%
    06:00 +8°C° 0,1 mm 6 m/S 761 mmHg 78%
    07:00 +8°C° 0,1 mm 5 m/S 760 mmHg 78%
    08:00 +8°C° 0,1 mm 6 m/S 760 mmHg 77%
    09:00 +9°C° 0,1 mm 6 m/S 760 mmHg 76%
    10:00 +9°C° 0,1 mm 6 m/S 759 mmHg 75%
    11:00 +9°C° 0,1 mm 7 m/S 758 mmHg 75%
    12:00 +10°C° 0,1 mm 7 m/S 758 mmHg 74%
    13:00 +10°C° 0,1 mm 8 m/S 757 mmHg 74%
    14:00 +10°C° 0,1 mm 8 m/S 756 mmHg 75%
    15:00 +10°C° 0,1 mm 8 m/S 755 mmHg 77%
    16:00 +9°C° 0,1 mm 8 m/S 754 mmHg 78%
    17:00 +9°C° 0,6 mm 8 m/S 753 mmHg 79%
    18:00 +8°C° 0,6 mm 9 m/S 752 mmHg 80%
    19:00 +8°C° 0,6 mm 10 m/S 752 mmHg 81%
    20:00 +8°C° 0,1 mm 10 m/S 751 mmHg 79%
    21:00 +7°C° 0,1 mm 10 m/S 751 mmHg 77%
    22:00 +7°C° 0,1 mm 10 m/S 751 mmHg 75%
    23:00 +6°C° 0,1 mm 9 m/S 751 mmHg 74%

    29 Oktober, Sonntag

    Zeit Temperatur Niederschläge Wind Luftdruck Luftfeuchtigkeit
    00:00 +6°C° 0,1 mm 9 m/S 751 mmHg 74%
    01:00 +5°C° 0,1 mm 9 m/S 751 mmHg 74%
    02:00 +5°C° 0 mm 9 m/S 751 mmHg 72%
    03:00 +5°C° 0 mm 8 m/S 752 mmHg 71%
    04:00 +5°C° 0 mm 8 m/S 752 mmHg 69%
    05:00 +5°C° 0 mm 8 m/S 753 mmHg 68%
    06:00 +4°C° 0 mm 8 m/S 753 mmHg 66%
    07:00 +4°C° 0 mm 8 m/S 754 mmHg 65%
    08:00 +5°C° 0 mm 8 m/S 754 mmHg 62%
    09:00 +6°C° 0 mm 8 m/S 755 mmHg 59%
    10:00 +6°C° 0 mm 9 m/S 756 mmHg 56%
    11:00 +7°C° 0 mm 9 m/S 756 mmHg 54%
    12:00 +7°C° 0 mm 8 m/S 757 mmHg 52%
    13:00 +9°C° 0 mm 8 m/S 757 mmHg 50%
    14:00 +8°C° 0 mm 7 m/S 757 mmHg 53%
    15:00 +8°C° 0 mm 7 m/S 758 mmHg 56%
    16:00 +7°C° 0 mm 6 m/S 758 mmHg 58%
    17:00 +7°C° 0 mm 5 m/S 759 mmHg 59%
    18:00 +6°C° 0 mm 5 m/S 759 mmHg 60%
    19:00 +5°C° 0 mm 5 m/S 759 mmHg 61%
    20:00 +5°C° 0 mm 4 m/S 760 mmHg 60%
    21:00 +5°C° 0 mm 4 m/S 760 mmHg 59%
    22:00 +5°C° 0 mm 3 m/S 760 mmHg 59%
    23:00 +5°C° 0 mm 3 m/S 760 mmHg 61%

    30 Oktober, Montag

    Zeit Temperatur Niederschläge Wind Luftdruck Luftfeuchtigkeit
    00:00 +5°C° 0 mm 3 m/S 760 mmHg 64%
    01:00 +5°C° 0 mm 3 m/S 760 mmHg 66%
    02:00 +5°C° 0 mm 3 m/S 760 mmHg 70%
    03:00 +7°C° 0 mm 3 m/S 760 mmHg 73%
    04:00 +7°C° 0 mm 3 m/S 760 mmHg 76%
    05:00 +8°C° 0,1 mm 3 m/S 759 mmHg 81%
    06:00 +7°C° 0,1 mm 4 m/S 759 mmHg 86%
    07:00 +7°C° 0,1 mm 4 m/S 759 mmHg 91%
    08:00 +8°C° 0,1 mm 4 m/S 759 mmHg 91%
    09:00 +10°C° 0,1 mm 4 m/S 760 mmHg 91%
    10:00 +10°C° 0,1 mm 4 m/S 760 mmHg 90%
    11:00 +10°C° 0 mm 5 m/S 760 mmHg 86%
    12:00 +12°C° 0 mm 5 m/S 760 mmHg 82%
    13:00 +13°C° 0 mm 5 m/S 760 mmHg 78%
    14:00 +13°C° 0 mm 5 m/S 760 mmHg 80%
    15:00 +12°C° 0 mm 5 m/S 761 mmHg 82%
    16:00 +12°C° 0 mm 5 m/S 761 mmHg 84%
    17:00 +10°C° 0 mm 5 m/S 761 mmHg 86%
    18:00 +10°C° 0 mm 5 m/S 762 mmHg 87%
    19:00 +10°C° 0 mm 5 m/S 762 mmHg 88%
    20:00 +10°C° 0 mm 5 m/S 762 mmHg 88%
    21:00 +10°C° 0 mm 5 m/S 763 mmHg 87%
    22:00 +9°C° 0 mm 5 m/S 763 mmHg 86%
    23:00 +10°C° 0 mm 5 m/S 763 mmHg 88%
    Mehr zeigen